TITAN 3C TRANSTAGE DEB, 1964

Orbit data source: Space-Track

TITAN 3C TRANSTAGE DEB, 1964 is space debris in LEO originally from a launch on Fri, 15 Oct 1965 UTC launched from the Air Force Eastern Test Range (AFETR). Debris objects in space refer to the collection of defunct objects orbiting the Earth. Examples of debris include non-operational satellites, rocket bodies, and fragments generated from explosions, collisions, or faulty payload assembly.

Loading next visibility...
TITAN 3C TRANSTAGE DEB details
Identifier
1964, 1965-082GZ
Orbit
LEO
Last TLE update2 days ago
Origin
Flag of USUSAF SSD (US)
ManufacturerUnknown
MissionSpacecraft
Bus & MotorUnknown
MassUnknown
Launch date (UTC)
1965-10-15 (59 years ago)
Launch vehicleUnknown
Launch site
Air Force Eastern Test Range (AFETR)
Object type
Payload
Rocket body
Debris
Shape & HBRUnknown
Radar Cross SectionSmall (<0.1 m²)

Expand to show TLE details & history

TLE from 2 days ago
0 TITAN 3C TRANSTAGE DEB
1 01964U 65082GZ  25043.17938864  .00003685  00000-0  13076-2 0  9992
2 01964  32.1945 356.9228 0180028  12.8959 347.6202 14.24743966 47678
Epoch: 2025-02-12T04:18Z
Definitive object data (Epoch: 2025-02-12T04:18:19.178Z)
Latitude0.00003°
Longitude149.86936°
Altitude681.786 km
Speed7.583 km/s
True Right ascension23h 47m 41s
True Declination0° 00' 00"
Sunlit
Object was in daylight at TLE epoch
Visualization TLE readout
Latitude6.79566°
Longitude-49.3505°
Altitude907.723 km
Speed7.349 km/s
Apparent Right ascension09h 06m 48s
Apparent Declination-16° 24' 44"
Sunlit
Object is in full shadow
Visualization observer readout
Local Sidereal Time18:58:59
Azimuth301.04° NW
Elevation-53.662°
Doppler factor1
Orbital elements
Apogee altitude942.338 km
Perigee altitude683.421 km
Semi-major axis7,191.016 km
Eccentricity0.0180028
Inclination32.1945°
RAAN356.9228°
Arg. of periapsis12.8959°
True anomaly347.16799°
Mean anomaly347.6202°
Eccentric anomaly347.3951°
Mean motion3.55924 °/min
BSTAR0.0013076
Orbital period101.15 mins
Loading maneuver chart data...

TITAN 3C TRANSTAGE DEB Visibility forecast

Observer location: undefined°, undefined

Span
Click to sort rows by Start time (UTC) header in descending order
Start Az.
Max El. time (UTC)
Max El. Az.
Max El.
End time (UTC)
End Az.
6 mins2025-02-14 00:16:38.605Z204.283° SW2025-02-14 00:19:38.605Z161.238° S20.429°2025-02-14 00:22:38.605Z119.009° SE
8 mins2025-02-14 02:02:38.605Z233.997° WSW2025-02-14 02:06:38.605Z163.794° S29.295°2025-02-14 02:10:38.605Z113.419° SE
8 mins2025-02-14 03:49:38.605Z241.084° WSW2025-02-14 03:52:38.605Z194.738° SSW26.817°2025-02-14 03:57:38.605Z131.389° SE
5 mins2025-02-14 05:37:38.605Z224.874° SW2025-02-14 05:39:38.605Z200.965° SSW14.987°2025-02-14 05:42:38.605Z169.698° S
|